When you browse on this site, cookies collect data to enhance your experience and personalize the content and advertising you see.
Visit our Privacy Policy to learn more. By continuing to use the site, you agree to this use of cookies and data.
  • In Latvia
  • List of Countries
  • For 7 days
  • Water Temperature
  • Satellite Maps
  • Weather Map
  • Weather Widgets
  • user-avatar
    Login

    Hourly Weather Naberezhnyy

    Today, 22 February, Friday

    Time Temperature Precipitation Wind Pressure Humidity
    00:00 -14°C° 0.1 mm 6 mps 743 mmHg 76%
    01:00 -14°C° 0.1 mm 6 mps 743 mmHg 76%
    02:00 -14°C° 0 mm 6 mps 743 mmHg 76%
    03:00 -15°C° 0.1 mm 6 mps 744 mmHg 77%
    04:00 -15°C° 0.1 mm 6 mps 744 mmHg 78%
    05:00 -15°C° 0.1 mm 7 mps 745 mmHg 79%
    06:00 -15°C° 0.1 mm 7 mps 745 mmHg 77%
    07:00 -15°C° 0.1 mm 7 mps 746 mmHg 76%
    08:00 -15°C° 0 mm 7 mps 747 mmHg 74%
    09:00 -14°C° 0 mm 7 mps 747 mmHg 73%
    10:00 -13°C° 0 mm 7 mps 748 mmHg 71%
    11:00 -13°C° 0 mm 7 mps 749 mmHg 70%
    12:00 -12°C° 0 mm 7 mps 749 mmHg 70%
    13:00 -12°C° 0 mm 7 mps 750 mmHg 69%
    14:00 -11°C° 0 mm 6 mps 751 mmHg 69%
    15:00 -11°C° 0 mm 6 mps 752 mmHg 71%
    16:00 -11°C° 0 mm 6 mps 752 mmHg 72%
    17:00 -11°C° 0 mm 5 mps 753 mmHg 74%
    18:00 -12°C° 0 mm 5 mps 754 mmHg 78%
    19:00 -12°C° 0 mm 5 mps 754 mmHg 83%
    20:00 -12°C° 0 mm 4 mps 755 mmHg 87%
    21:00 -14°C° 0 mm 4 mps 755 mmHg 88%
    22:00 -13°C° 0 mm 3 mps 756 mmHg 88%
    23:00 -13°C° 0 mm 3 mps 756 mmHg 89%

    Tomorrow, 23 February, Saturday

    Time Temperature Precipitation Wind Pressure Humidity
    00:00 -14°C° 0 mm 3 mps 757 mmHg 90%
    01:00 -14°C° 0 mm 3 mps 757 mmHg 91%
    02:00 -14°C° 0 mm 2 mps 757 mmHg 93%
    03:00 -13°C° 0 mm 2 mps 757 mmHg 92%
    04:00 -13°C° 0 mm 2 mps 757 mmHg 92%
    05:00 -13°C° 0 mm 2 mps 757 mmHg 91%
    06:00 -12°C° 0 mm 2 mps 757 mmHg 84%
    07:00 -10°C° 0 mm 2 mps 757 mmHg 78%
    08:00 -12°C° 0 mm 3 mps 756 mmHg 71%
    09:00 -10°C° 0 mm 3 mps 756 mmHg 67%
    10:00 -10°C° 0 mm 4 mps 755 mmHg 64%
    11:00 -9°C° 0 mm 4 mps 754 mmHg 60%
    12:00 -10°C° 0.4 mm 5 mps 754 mmHg 70%
    13:00 -10°C° 0.4 mm 5 mps 753 mmHg 79%
    14:00 -10°C° 0.4 mm 6 mps 752 mmHg 88%
    15:00 -9°C° 0.5 mm 6 mps 751 mmHg 88%
    16:00 -8°C° 0.5 mm 5 mps 751 mmHg 88%
    17:00 -8°C° 0.5 mm 5 mps 750 mmHg 87%
    18:00 -8°C° 0.3 mm 6 mps 749 mmHg 88%
    19:00 -6°C° 0.3 mm 6 mps 749 mmHg 89%
    20:00 -5°C° 0.3 mm 6 mps 749 mmHg 90%
    21:00 -4°C° 0.1 mm 5 mps 748 mmHg 90%
    22:00 -4°C° 0.1 mm 5 mps 748 mmHg 90%
    23:00 -2°C° 0.1 mm 5 mps 748 mmHg 91%

    Day after tomorrow, 24 February, Sunday

    Time Temperature Precipitation Wind Pressure Humidity
    00:00 -2°C° 0.1 mm 4 mps 748 mmHg 91%
    01:00 -1°C° 0.1 mm 4 mps 748 mmHg 92%
    02:00 -1°C° 0.1 mm 4 mps 748 mmHg 92%
    03:00 -1°C° 0 mm 4 mps 748 mmHg 93%
    04:00 0°C° 0 mm 3 mps 748 mmHg 94%
    05:00 0°C° 0 mm 3 mps 748 mmHg 94%
    06:00 0°C° 0 mm 3 mps 748 mmHg 94%
    07:00 0°C° 0 mm 3 mps 749 mmHg 94%
    08:00 0°C° 0 mm 3 mps 749 mmHg 94%
    09:00 0°C° 0 mm 3 mps 749 mmHg 94%
    10:00 0°C° 0 mm 3 mps 749 mmHg 94%
    11:00 0°C° 0 mm 3 mps 749 mmHg 94%
    12:00 +1°C° 0 mm 3 mps 749 mmHg 94%
    13:00 +1°C° 0 mm 3 mps 749 mmHg 94%
    14:00 +1°C° 0 mm 3 mps 749 mmHg 93%
    15:00 0°C° 0 mm 3 mps 749 mmHg 94%
    16:00 0°C° 0 mm 3 mps 749 mmHg 94%
    17:00 +1°C° 0 mm 2 mps 748 mmHg 95%
    18:00 +1°C° 0 mm 2 mps 748 mmHg 95%
    19:00 +1°C° 0 mm 2 mps 748 mmHg 96%
    20:00 +1°C° 0 mm 2 mps 748 mmHg 96%
    21:00 0°C° 0.1 mm 3 mps 747 mmHg 96%
    22:00 0°C° 0.1 mm 3 mps 747 mmHg 96%
    23:00 0°C° 0.1 mm 3 mps 746 mmHg 96%

    25 February, Monday

    Time Temperature Precipitation Wind Pressure Humidity
    00:00 0°C° 0.1 mm 3 mps 746 mmHg 96%
    01:00 0°C° 0.1 mm 3 mps 746 mmHg 95%
    02:00 0°C° 0.1 mm 3 mps 746 mmHg 95%
    03:00 0°C° 0 mm 3 mps 745 mmHg 94%
    04:00 -1°C° 0 mm 4 mps 745 mmHg 94%
    05:00 -1°C° 0 mm 4 mps 745 mmHg 94%
    06:00 -1°C° 0 mm 4 mps 745 mmHg 92%
    07:00 -1°C° 0 mm 5 mps 745 mmHg 90%
    08:00 -1°C° 0 mm 5 mps 745 mmHg 89%
    09:00 -1°C° 0 mm 5 mps 745 mmHg 88%
    10:00 -1°C° 0 mm 5 mps 745 mmHg 88%
    11:00 -1°C° 0 mm 5 mps 745 mmHg 87%
    12:00 -1°C° 0 mm 5 mps 745 mmHg 86%
    13:00 -1°C° 0 mm 5 mps 744 mmHg 84%
    14:00 -1°C° 0 mm 5 mps 744 mmHg 83%
    15:00 -2°C° 0.1 mm 6 mps 743 mmHg 83%
    16:00 -2°C° 0.1 mm 6 mps 743 mmHg 84%
    17:00 -2°C° 0.1 mm 6 mps 743 mmHg 85%
    18:00 -2°C° 0.1 mm 6 mps 743 mmHg 84%
    19:00 -2°C° 0.1 mm 6 mps 742 mmHg 84%
    20:00 -2°C° 0.1 mm 6 mps 742 mmHg 83%
    21:00 -2°C° 0 mm 6 mps 742 mmHg 84%
    22:00 -1°C° 0 mm 5 mps 742 mmHg 84%
    23:00 -1°C° 0 mm 5 mps 742 mmHg 85%

    26 February, Tuesday

    Time Temperature Precipitation Wind Pressure Humidity
    00:00 -2°C° 0 mm 4 mps 742 mmHg 86%
    01:00 -2°C° 0 mm 4 mps 742 mmHg 88%
    02:00 -2°C° 0 mm 4 mps 742 mmHg 89%
    03:00 -2°C° 0 mm 3 mps 741 mmHg 90%
    04:00 -2°C° 0 mm 3 mps 740 mmHg 91%
    05:00 -2°C° 0 mm 2 mps 739 mmHg 92%
    06:00 -2°C° 0 mm 2 mps 738 mmHg 92%
    07:00 -2°C° 0 mm 2 mps 738 mmHg 93%
    08:00 -2°C° 0 mm 2 mps 737 mmHg 93%
    09:00 -2°C° 0.7 mm 2 mps 736 mmHg 93%
    10:00 -2°C° 0.7 mm 2 mps 735 mmHg 93%
    11:00 -1°C° 0.7 mm 2 mps 734 mmHg 93%
    12:00 -1°C° 0.4 mm 2 mps 734 mmHg 93%
    13:00 -1°C° 0.4 mm 2 mps 733 mmHg 93%
    14:00 +1°C° 0.4 mm 2 mps 733 mmHg 93%
    15:00 +1°C° 0.4 mm 2 mps 733 mmHg 94%
    16:00 +1°C° 0.4 mm 2 mps 734 mmHg 94%
    17:00 -1°C° 0.4 mm 2 mps 734 mmHg 95%
    18:00 -1°C° 0.1 mm 2 mps 735 mmHg 95%
    19:00 -1°C° 0.1 mm 2 mps 735 mmHg 95%
    20:00 -1°C° 0.1 mm 2 mps 736 mmHg 94%
    21:00 -2°C° 0 mm 2 mps 737 mmHg 94%
    22:00 -2°C° 0 mm 3 mps 738 mmHg 93%
    23:00 -2°C° 0 mm 3 mps 739 mmHg 92%

    27 February, Wednesday

    Time Temperature Precipitation Wind Pressure Humidity
    00:00 -2°C° 0 mm 3 mps 739 mmHg 91%
    01:00 -2°C° 0 mm 3 mps 740 mmHg 89%
    02:00 -4°C° 0 mm 3 mps 741 mmHg 88%
    03:00 -4°C° 0 mm 3 mps 741 mmHg 89%
    04:00 -4°C° 0 mm 3 mps 742 mmHg 90%
    05:00 -4°C° 0 mm 3 mps 742 mmHg 91%
    06:00 -4°C° 0 mm 3 mps 743 mmHg 91%
    07:00 -5°C° 0 mm 3 mps 743 mmHg 90%
    08:00 -5°C° 0 mm 3 mps 744 mmHg 89%
    09:00 -5°C° 0 mm 3 mps 744 mmHg 88%
    10:00 -4°C° 0 mm 3 mps 744 mmHg 86%
    11:00 -4°C° 0 mm 3 mps 744 mmHg 85%
    12:00 -4°C° 0 mm 3 mps 744 mmHg 84%
    13:00 -2°C° 0 mm 3 mps 743 mmHg 83%
    14:00 -2°C° 0 mm 3 mps 743 mmHg 82%
    15:00 -2°C° 0 mm 3 mps 742 mmHg 84%
    16:00 -2°C° 0 mm 3 mps 742 mmHg 85%
    17:00 -2°C° 0 mm 3 mps 741 mmHg 87%
    18:00 -2°C° 0 mm 3 mps 741 mmHg 89%
    19:00 -4°C° 0 mm 3 mps 740 mmHg 90%
    20:00 -4°C° 0 mm 3 mps 739 mmHg 92%
    21:00 -4°C° 0 mm 4 mps 738 mmHg 91%
    22:00 -3°C° 0 mm 4 mps 736 mmHg 91%
    23:00 -3°C° 0 mm 4 mps 735 mmHg 90%
    Show more